DB0WV-6 Weather Reports


time (UTC)temp
C
wind
direction
speed
KPH
gust
KPH
rain 1hr
cm
rain 24hr
cm
rain mn
cm
humidity
%
barometer
mb
20260507015515 6 222 11.3 20.9 0.00 6.25 0.00 95 1009.0
20260507014515 6 212 12.9 27.4 0.00 6.25 0.00 94 1009.0
20260507013515 7 213 11.3 16.1 0.00 6.25 0.00 94 1008.9
20260507012515 7 207 11.3 16.1 0.00 6.25 0.00 94 1009.0
20260507011515 7 213 11.3 19.3 0.00 6.25 0.00 94 1008.9
20260507010516 7 213 12.9 20.9 0.00 6.25 0.00 95 1008.8
20260507005534 7 212 11.3 25.7 0.00 6.25 0.00 95 1008.9
20260507004513 7 215 11.3 19.3 0.00 6.25 0.00 95 1008.8
20260507003513 7 213 11.3 24.1 0.00 6.25 0.00 95 1008.7
20260507002515 7 212 11.3 20.9 0.00 6.25 0.00 95 1008.6
20260507001513 7 211 12.9 20.9 0.00 6.25 0.00 95 1008.5
20260507000513 7 206 12.9 19.3 0.00 6.25 0.00 95 1008.6
20260506235513 7 206 11.3 19.3 0.00 6.25 0.00 95 1008.6
20260506234514 7 202 12.9 22.5 0.00 6.25 0.00 95 1008.6
20260506233514 7 208 9.7 14.5 0.00 6.25 0.00 95 1008.6
20260506232514 7 221 9.7 16.1 0.00 6.25 0.00 95 1008.4
20260506231513 7 217 11.3 19.3 0.00 6.25 0.00 95 1008.5
20260506230533 7 219 9.7 14.5 0.00 6.25 0.00 95 1008.5
20260506225534 7 217 9.7 19.3 0.00 6.25 0.00 95 1008.6
20260506224513 7 209 9.7 19.3 0.00 6.25 0.00 95 1008.6
20260506223513 7 204 8.0 17.7 0.00 6.25 0.00 95 1008.6
20260506222513 7 211 9.7 14.5 0.00 6.25 0.00 95 1008.4
20260506221533 7 215 11.3 19.3 0.00 6.25 0.00 95 1008.2
20260506220513 7 214 11.3 19.3 0.00 6.25 0.00 94 1008.2
20260506215533 7 214 12.9 19.3 0.00 6.25 6.25 94 1008.1
20260506214514 7 228 9.7 20.9 0.00 6.25 6.25 94 1008.1
20260506213514 7 222 9.7 20.9 0.00 6.25 6.25 94 1008.2
20260506212514 7 216 11.3 20.9 0.00 6.25 6.25 94 1008.1
20260506211513 7 223 11.3 22.5 0.00 6.25 6.25 94 1008.2
20260506210513 7 218 12.9 20.9 0.00 6.25 6.25 94 1008.2
20260506205514 7 214 11.3 19.3 0.00 6.25 6.25 94 1008.1
20260506204514 7 213 11.3 17.7 0.03 6.25 6.25 95 1008.1
20260506203514 7 212 11.3 17.7 0.03 6.25 6.25 95 1008.0
20260506202513 7 215 9.7 19.3 0.03 6.25 6.25 94 1008.0
20260506201513 7 221 11.3 22.5 0.03 6.25 6.25 94 1008.0
20260506200514 7 226 9.7 17.7 0.03 6.25 6.25 94 1007.9
20260506195513 7 223 11.3 17.7 0.03 6.25 6.25 93 1007.8
20260506194513 7 221 11.3 19.3 0.00 6.22 6.22 93 1007.8
20260506193514 7 219 11.3 19.3 0.00 6.22 6.22 93 1007.6
20260506192534 7 225 12.9 19.3 0.00 6.22 6.22 93 1007.5
20260506191515 7 228 11.3 22.5 0.00 6.22 6.22 93 1007.4
20260506190514 7 223 11.3 20.9 0.00 6.22 6.22 92 1007.3
20260506185513 7 222 12.9 22.5 0.00 6.22 6.22 92 1007.1
20260506184513 8 225 11.3 25.7 0.00 6.22 6.22 92 1007.0
20260506183514 8 227 12.9 24.1 0.00 6.22 6.22 92 1006.8
20260506182514 8 222 12.9 20.9 0.00 6.22 6.22 92 1006.8
20260506181534 8 221 11.3 24.1 0.00 6.22 6.22 92 1006.9
20260506180514 8 217 11.3 22.5 0.00 6.22 6.22 92 1006.8
20260506175535 8 216 12.9 24.1 0.00 6.22 6.22 92 1006.7
20260506174513 8 218 11.3 24.1 0.00 6.22 6.22 91 1006.6
20260506173513 8 223 11.3 20.9 0.00 6.22 6.22 92 1006.6
20260506172513 8 210 11.3 19.3 0.00 6.22 6.22 90 1006.5
20260506171513 8 209 11.3 19.3 0.00 6.22 6.22 90 1006.2
20260506170513 8 223 12.9 20.9 0.00 6.22 6.22 90 1006.1
20260506165513 8 229 11.3 20.9 0.00 6.22 6.22 89 1006.1
20260506164513 8 218 16.1 33.8 0.00 6.22 6.22 89 1005.9
20260506163513 8 229 14.5 25.7 0.00 6.22 6.22 90 1005.9
20260506162513 8 226 16.1 29.0 0.03 6.22 6.22 92 1005.7
20260506161513 7 221 17.7 40.2 0.10 6.22 6.22 93 1005.7
20260506160513 7 222 19.3 30.6 0.38 6.22 6.22 91 1005.6
20260506155514 8 218 17.7 30.6 0.99 6.22 6.22 90 1005.6
20260506154514 8 216 17.7 29.0 2.16 6.22 6.22 87 1005.5
20260506153515 8 221 16.1 32.2 3.68 6.22 6.22 86 1005.5
20260506152534 7 230 16.1 30.6 4.55 6.17 6.17 84 1005.4
20260506151515 7 229 16.1 30.6 4.88 6.10 6.10 84 1005.4
20260506150514 7 223 17.7 35.4 5.11 5.87 5.82 84 1005.5
20260506145515 7 219 19.3 40.2 5.08 5.28 5.23 85 1005.5
20260506144534 8 217 24.1 46.7 4.04 4.24 4.04 85 1005.3
20260506143515 8 220 24.1 49.9 2.54 2.72 2.54 85 1004.9
20260506142515 8 222 25.7 41.8 1.63 1.80 1.63 83 1004.8
20260506141535 9 212 19.3 40.2 1.22 1.40 1.22 84 1004.8
20260506140514 10 221 20.9 33.8 0.71 0.89 0.71 79 1004.6
20260506135533 12 222 17.7 40.2 0.15 0.36 0.15 78 1004.6
20260506134515 13 213 11.3 19.3 0.00 0.18 0.00 71 1004.6
20260506133515 14 211 9.7 16.1 0.00 0.18 0.00 70 1004.6
20260506132515 13 215 8.0 12.9 0.00 0.18 0.00 73 1004.5
20260506131515 13 214 8.0 11.3 0.00 0.18 0.00 74 1004.5
20260506130515 14 205 8.0 12.9 0.00 0.18 0.00 73 1004.6
20260506125515 15 234 4.8 9.7 0.00 0.18 0.00 73 1004.4
20260506124514 15 225 6.4 8.0 0.00 0.18 0.00 72 1004.5
20260506123514 15 229 4.8 8.0 0.00 0.18 0.00 72 1004.3
20260506122515 15 218 6.4 9.7 0.00 0.18 0.00 71 1004.4
20260506121515 15 218 6.4 11.3 0.00 0.18 0.00 70 1004.5
20260506120535 15 219 6.4 9.7 0.00 0.18 0.00 67 1004.3
20260506115515 16 191 6.4 8.0 0.00 0.18 0.00 66 1004.3
20260506114515 15 264 0.0 3.2 0.00 0.18 0.00 68 1004.2
20260506113515 16 264 3.2 4.8 0.00 0.18 0.00 67 1004.2
20260506112535 16 183 3.2 6.4 0.00 0.18 0.00 66 1004.4
20260506111515 16 194 4.8 8.0 0.00 0.18 0.00 63 1004.5
20260506110514 17 201 3.2 6.4 0.00 0.18 0.00 62 1004.6
20260506105516 16 214 4.8 6.4 0.00 0.18 0.00 62 1004.7
20260506104515 16 90 0.0 0.0 0.00 0.18 0.00 67 1004.7
20260506103515 16 192 0.0 3.2 0.00 0.18 0.00 67 1004.8
20260506102515 15 149 1.6 4.8 0.00 0.18 0.00 70 1004.8
20260506101515 15 233 4.8 6.4 0.00 0.18 0.00 71 1004.8
20260506100515 13 90 0.0 0.0 0.00 0.18 0.00 73 1004.7
20260506095515 12 16 0.0 1.6 0.00 0.18 0.00 78 1004.5
20260506094515 12 5 3.2 8.0 0.00 0.18 0.00 81 1004.3
20260506093515 12 344 8.0 11.3 0.00 0.18 0.00 80 1004.3
20260506092515 12 2 4.8 9.7 0.00 0.18 0.00 77 1004.5
20260506091535 12 27 6.4 8.0 0.00 0.18 0.00 75 1004.7
20260506090534 13 31 6.4 9.7 0.00 0.18 0.00 75 1004.8
20260506085516 13 45 6.4 8.0 0.00 0.18 0.00 74 1004.7
20260506084515 13 6 1.6 6.4 0.00 0.18 0.00 73 1004.8
20260506083535 13 25 3.2 4.8 0.00 0.18 0.00 72 1004.8
20260506082516 13 282 0.0 4.8 0.00 0.18 0.00 71 1004.7
20260506081516 13 350 1.6 4.8 0.00 0.18 0.00 72 1004.6
20260506080515 13 311 3.2 4.8 0.00 0.18 0.00 71 1004.6
20260506073516 13 329 0.0 1.6 0.00 0.18 0.00 70 1004.8
20260506072514 13 241 1.6 4.8 0.00 0.18 0.00 70 1005.0
20260506071515 13 222 1.6 4.8 0.00 0.18 0.00 72 1004.9
20260506070516 13 237 1.6 4.8 0.00 0.18 0.00 74 1004.8
20260506062515 11 204 3.2 6.4 0.00 0.18 0.00 78 1005.0
20260506061515 11 232 4.8 6.4 0.00 0.18 0.00 78 1004.9
20260506060516 11 239 3.2 8.0 0.00 0.18 0.00 79 1004.9
20260506050515 10 241 3.2 8.0 0.00 0.18 0.00 84 1004.9
20260506044515 10 227 4.8 11.3 0.00 0.18 0.00 85 1004.9
20260506043535 9 229 6.4 9.7 0.00 0.18 0.00 86 1004.9
20260506042515 9 220 8.0 11.3 0.00 0.18 0.00 86 1005.1
20260506041515 9 222 6.4 11.3 0.00 0.18 0.00 87 1005.1
20260506040515 9 227 6.4 9.7 0.00 0.18 0.00 87 1005.2
20260506035516 9 226 6.4 9.7 0.00 0.18 0.00 88 1005.3
20260506034515 9 223 6.4 11.3 0.00 0.18 0.00 88 1005.4
20260506033515 9 222 6.4 9.7 0.00 0.18 0.00 89 1005.5
20260506032516 9 210 3.2 6.4 0.00 0.18 0.00 88 1005.7
20260506031535 9 220 3.2 8.0 0.00 0.18 0.00 88 1005.7
20260506030516 9 196 6.4 11.3 0.00 0.18 0.00 89 1005.9
20260506025515 9 197 6.4 11.3 0.00 0.18 0.00 88 1005.9
20260506024515 9 209 6.4 11.3 0.00 0.18 0.00 87 1005.9
20260506023516 9 213 6.4 9.7 0.00 0.18 0.00 86 1005.9
20260506022516 10 209 8.0 12.9 0.00 0.18 0.00 85 1006.0
20260506021515 10 209 8.0 12.9 0.00 0.18 0.00 84 1006.0
20260506020515 10 204 9.7 16.1 0.00 0.18 0.00 85 1006.1